Date String (YYYY-MM-DD hh:mm:ss) UTC,Instrument flags,Ambient pressure (hPa),Sample flow (lpm),Bypass flow (lpm),Sample temperature (°C),Ambient temperature (°C),ASC tube jacket temperature (°C),LED temperature (°C),Box temperature (°C),Sample RH (%),Span deviation,Mass concentration (μg/m³),Mass concentration (μg/m³),Mass concentration (μg/m³)
DateTimeUTC,F1_M11,P_M11,Q1_M11,Q2_M11,T1_M11,T2_M11,T3_M11,T4_M11,T5_M11,U1_M11,ZSPAN_M11,X0_M11,X2_M11,X1_M11
2022-03-17 03:00:00,,0823.0,5.00,0.00,24.5,23.7,00.0,33.5,26.4,20.1,0000.0,0006.16,0001.91,0000.85
2022-03-17 03:01:00,,0822.9,4.99,0.00,24.5,23.7,00.0,33.5,26.4,20.1,0000.0,0006.33,0001.93,0000.86
2022-03-17 03:02:00,,0823.0,5.00,0.00,24.5,23.7,00.0,33.5,26.3,20.1,0000.0,0006.54,0002.00,0000.87
2022-03-17 03:03:00,,0822.9,5.00,0.00,24.5,23.7,00.0,33.5,26.3,20.1,0000.0,0006.70,0002.07,0000.89
2022-03-17 03:04:00,,0822.9,5.01,0.00,24.5,23.7,00.0,33.5,26.3,20.1,0000.0,0006.83,0002.09,0000.90
2022-03-17 03:05:00,,0823.0,4.99,0.00,24.5,23.7,00.0,33.5,26.4,20.1,0000.0,0006.77,0002.06,0000.90
2022-03-17 03:06:00,,0822.9,4.99,0.00,24.5,23.7,00.0,33.5,26.4,20.1,0000.0,0006.68,0002.06,0000.91
2022-03-17 03:07:00,,0822.9,5.01,0.00,24.5,23.7,00.0,33.5,26.4,20.1,0000.0,0006.40,0002.03,0000.91
2022-03-17 03:08:00,,0822.9,5.00,0.00,24.5,23.8,00.0,33.5,26.4,20.1,0000.0,0006.81,0002.01,0000.91
2022-03-17 03:09:00,,0822.9,5.00,0.00,24.5,23.8,00.0,33.5,26.4,20.1,0000.0,0006.89,0002.04,0000.92
2022-03-17 03:10:00,,0822.9,5.00,0.00,24.5,23.7,00.0,33.5,26.4,20.1,0000.0,0006.65,0002.04,0000.92
2022-03-17 03:11:00,,0822.9,5.00,0.00,24.5,23.7,00.0,33.5,26.4,20.1,0000.0,0005.70,0002.06,0000.93
2022-03-17 03:12:00,,0823.0,5.00,0.00,24.5,23.8,00.0,33.5,26.4,20.1,0000.0,0004.95,0002.04,0000.94
2022-03-17 03:13:00,,0823.0,5.00,0.00,24.5,23.7,00.0,33.5,26.4,20.2,0000.0,0004.85,0002.04,0000.94
2022-03-17 03:14:00,,0823.0,5.00,0.00,24.5,23.7,00.0,33.5,26.4,20.4,0000.0,0004.70,0001.99,0000.94
2022-03-17 03:15:00,,0823.0,5.01,0.00,24.5,23.8,00.0,33.5,26.4,22.0,0000.0,0004.51,0001.93,0000.94
2022-03-17 03:16:00,,0823.0,5.00,0.00,24.5,23.8,00.0,33.5,26.4,22.1,0000.0,0004.47,0001.91,0000.93
2022-03-17 03:17:00,,0823.0,4.99,0.00,24.5,23.7,00.0,33.5,26.3,20.8,0000.0,0004.44,0001.91,0000.93
2022-03-17 03:18:00,,0823.0,5.01,0.00,24.5,23.8,00.0,33.5,26.4,20.4,0000.0,0004.66,0002.01,0000.95
2022-03-17 03:19:00,,0823.0,5.00,0.00,24.5,23.8,00.0,33.5,26.3,20.3,0000.0,0004.37,0002.02,0000.96
2022-03-17 03:20:00,,0823.1,5.00,0.00,24.5,23.8,00.0,33.5,26.4,20.2,0000.0,0004.01,0001.97,0000.96
2022-03-17 03:21:00,,0823.0,4.99,0.00,24.5,23.8,00.0,33.5,26.3,20.2,0000.0,0003.92,0001.92,0000.97
2022-03-17 03:22:00,,0823.1,5.00,0.00,24.5,23.8,00.0,33.5,26.3,20.1,0000.0,0003.73,0001.89,0000.98
2022-03-17 03:23:00,,0823.0,5.00,0.00,24.5,23.8,00.0,33.5,26.3,20.0,0000.0,0003.61,0001.86,0000.99
2022-03-17 03:24:00,,0823.1,4.99,0.00,24.5,23.8,00.0,33.5,26.3,19.9,0000.0,0003.54,0001.82,0001.00
2022-03-17 03:25:00,,0823.1,5.00,0.00,24.5,23.8,00.0,33.5,26.4,19.9,0000.0,0003.42,0001.79,0001.00
2022-03-17 03:26:00,,0823.1,5.00,0.00,24.5,23.8,00.0,33.5,26.4,19.9,0000.0,0003.49,0001.86,0001.02
2022-03-17 03:27:00,,0823.1,5.00,0.00,24.5,23.8,00.0,33.5,26.4,19.9,0000.0,0003.58,0001.93,0001.03
2022-03-17 03:28:00,,0823.1,5.00,0.00,24.5,23.8,00.0,33.5,26.4,19.8,0000.0,0003.65,0001.95,0001.05
2022-03-17 03:29:00,,0823.1,5.00,0.00,24.5,23.8,00.0,33.5,26.4,19.8,0000.0,0003.58,0001.92,0001.04
2022-03-17 03:30:00,,0823.1,5.00,0.00,24.5,23.8,00.0,33.5,26.3,19.8,0000.0,0003.56,0001.94,0001.04
2022-03-17 03:31:00,,0823.1,5.00,0.00,24.5,23.8,00.0,33.5,26.4,19.8,0000.0,0003.66,0001.98,0001.05
2022-03-17 03:32:00,,0823.1,4.99,0.00,24.5,23.8,00.0,33.5,26.3,19.8,0000.0,0003.64,0002.00,0001.07
2022-03-17 03:33:00,,0823.1,5.00,0.00,24.5,23.8,00.0,33.5,26.3,19.9,0000.0,0003.72,0002.01,0001.07
2022-03-17 03:34:00,,0823.1,5.00,0.00,24.5,23.7,00.0,33.5,26.3,19.8,0000.0,0003.92,0002.06,0001.08
2022-03-17 03:35:00,,0823.1,5.00,0.00,24.5,23.7,00.0,33.5,26.3,19.8,0000.0,0004.11,0002.14,0001.08
2022-03-17 03:36:00,,0823.1,5.00,0.00,24.5,23.8,00.0,33.5,26.3,19.8,0000.0,0004.25,0002.21,0001.09
2022-03-17 03:37:00,,0823.1,5.00,0.00,24.5,23.8,00.0,33.4,26.4,19.8,0000.0,0004.40,0002.21,0001.11
2022-03-17 03:38:00,,0823.1,4.99,0.00,24.5,23.7,00.0,33.4,26.3,19.8,0000.0,0004.30,0002.15,0001.11
2022-03-17 03:39:00,,0823.2,4.99,0.00,24.5,23.7,00.0,33.4,26.3,19.7,0000.0,0004.18,0002.12,0001.10
2022-03-17 03:40:00,,0823.2,5.00,0.00,24.5,23.7,00.0,33.4,26.3,19.7,0000.0,0004.00,0002.06,0001.10
2022-03-17 03:41:00,,0823.2,5.00,0.00,24.5,23.7,00.0,33.4,26.4,19.8,0000.0,0004.00,0002.01,0001.10
2022-03-17 03:42:00,,0823.2,4.99,0.00,24.5,23.7,00.0,33.4,26.3,19.8,0000.0,0003.90,0001.97,0001.11
2022-03-17 03:43:00,,0823.2,5.00,0.00,24.5,23.7,00.0,33.4,26.3,19.8,0000.0,0003.89,0001.97,0001.11
2022-03-17 03:44:00,,0823.2,5.00,0.00,24.5,23.7,00.0,33.4,26.3,19.8,0000.0,0003.86,0001.97,0001.10
2022-03-17 03:45:00,,0823.2,5.02,0.00,24.5,23.7,00.0,33.4,26.3,19.6,0000.0,0003.76,0001.96,0001.10
2022-03-17 03:46:00,,0823.1,4.99,0.00,24.5,23.7,00.0,33.4,26.3,19.6,0000.0,0003.48,0001.86,0001.08
2022-03-17 03:47:00,,0823.1,5.00,0.00,24.5,23.7,00.0,33.4,26.3,19.5,0000.0,0003.26,0001.76,0001.07
2022-03-17 03:48:00,,0823.1,5.00,0.00,24.5,23.7,00.0,33.4,26.3,19.5,0000.0,0003.14,0001.73,0001.05
2022-03-17 03:49:00,,0823.1,5.00,0.00,24.5,23.7,00.0,33.4,26.3,19.5,0000.0,0002.95,0001.70,0001.04
2022-03-17 03:50:00,,0823.1,4.99,0.00,24.5,23.7,00.0,33.4,26.3,19.4,0000.0,0003.03,0001.73,0001.04
2022-03-17 03:51:00,,0823.1,5.00,0.00,24.4,23.7,00.0,33.4,26.3,19.4,0000.0,0003.09,0001.76,0001.04
2022-03-17 03:52:00,,0823.1,4.99,0.00,24.4,23.6,00.0,33.4,26.3,19.4,0000.0,0003.05,0001.77,0001.05
2022-03-17 03:53:00,,0823.1,5.00,0.00,24.4,23.6,00.0,33.4,26.3,19.3,0000.0,0003.16,0001.80,0001.04
2022-03-17 03:54:00,,0823.2,5.00,0.00,24.4,23.7,00.0,33.4,26.3,19.3,0000.0,0003.32,0001.86,0001.04
2022-03-17 03:55:00,,0823.2,5.00,0.00,24.4,23.6,00.0,33.4,26.3,19.3,0000.0,0003.41,0001.87,0001.04
2022-03-17 03:56:00,,0823.1,5.00,0.00,24.4,23.6,00.0,33.4,26.3,19.4,0000.0,0003.36,0001.83,0001.03
2022-03-17 03:57:00,,0823.2,5.00,0.00,24.4,23.7,00.0,33.4,26.3,19.4,0000.0,0003.56,0001.89,0001.04
2022-03-17 03:58:00,,0823.1,5.00,0.00,24.4,23.7,00.0,33.4,26.3,19.4,0000.0,0003.89,0002.01,0001.05
2022-03-17 03:59:00,,0823.2,4.98,0.00,24.4,23.7,00.0,33.4,26.3,19.5,0000.0,0003.92,0002.00,0001.06
